Regional Weather Roundup
Issued by NWS

Home | Current Version | Previous Version | Graphics & Text | Print | Product List | Glossary On
Versions: 1 2 3 4 5 6 7 8 9 10 11 12 13 14 15 16 17 18 19 20 21 22 23 24 25 26 27 28 29 30 31 32 33 34 35 36 37 38 39 40 41 42 43 44 45 46 47 48 49 50
000
ASUS43 KFSD 291702
RWRSD

WEATHER ROUNDUP FOR SOUTH DAKOTA
NATIONAL WEATHER SERVICE SIOUX FALLS SD
1200 PM CDT SUN MAR 29 2015

NOTE: "FAIR" INDICATES FEW OR NO CLOUDS BELOW 12,000 FEET WITH NO
SIGNIFICANT WEATHER AND/OR OBSTRUCTIONS TO VISIBILITY.


SDZ001>005-009-010-012>017-291800-
NORTHWEST AND NORTH CENTRAL SOUTH DAKOTA

CITY           SKY/WX    TMP DP  RH WIND       PRES   REMARKS
BUFFALO          N/A     51  34  52 NW22G31   30.07F
FAITH            N/A     51  27  39 NW24G31   30.13F
MOBRIDGE       SUNNY     52  29  41 NW28G35   30.05R
$$

SDZ012>016-024>037-041>051-057-063-072>074-291800-
SOUTHWEST AND SOUTH CENTRAL SOUTH DAKOTA

CITY           SKY/WX    TMP DP  RH WIND       PRES   REMARKS
RAPID CTY ARPT SUNNY     54  32  43 N22G30    30.19F
PIERRE         SUNNY     53  29  39 NW24G31   30.11R
CUSTER         SUNNY     48  19  31 N12G18    30.20S
ELLSWORTH AFB  MOSUNNY   53  32  45 N21G30    30.18S
PHILIP         SUNNY     54  24  31 N24G31    30.17F
PINE RIDGE     SUNNY     53  28  38 NW13      30.22F
SPEARFISH      FAIR      50  32  50 NW17G26   30.18F
WINNER         FAIR      54  26  34 N30G38    30.13R
$$

SDZ004>011-016>023-039-040-291800-
NORTHEAST SOUTH DAKOTA

CITY           SKY/WX    TMP DP  RH WIND       PRES   REMARKS
ABERDEEN       SUNNY     52  31  44 NW28G40   30.00R
WATERTOWN      MOSUNNY   48  35  60 NW31G43   29.91R
SISSETON         N/A     48  37  65 N38G46    29.86R
$$

SDZ017-020-022-023-036>040-048>070-291800-
SOUTHEAST SOUTH DAKOTA

CITY           SKY/WX    TMP DP  RH WIND       PRES   REMARKS
SIOUX FALLS    CLOUDY    49  35  58 NW31G49   29.94R
HURON          SUNNY     51  32  48 NW32G43   30.01R
MITCHELL       MOSUNNY   52  35  52 NW35G43   30.03R
YANKTON        CLOUDY   N/A N/A N/A NW38G47   30.01R
$$

ABBREVIATIONS USED IN REMARKS
   TC - TEMPERATURE IN CELSIUS
  WCI - WIND CHILL INDEX
   HX - HEAT INDEX
  VSB - VISIBILITY




USA.gov is the U.S. government's official web portal to all federal, state and local government web resources and services.